Back to catalog

STARLINK-35460

AliveCommunicationsVLEO
NORAD 66328·PAYLOAD·🇺🇸 United States

Launched Nov 6, 2025 from Cape Canaveral Space Force Station

Loading…

Next Passes (next 24 hours)

TLE

FreshSource: CelesTrak SupGP

Epoch: Sep 14, 2026, 15:43 UTC

1 66328C 25253K   26257.65534722 -.00025879  00000+0 -93759-3 0  2573
2 66328  42.9997 225.6027 0000946 263.0314   6.6827 15.27583159    15

Track STARLINK-35460 in real time with AllMySat

Download on the App Store